Wind_Speed
29 30 31 31 31 31 29 26 24 22 21 20 19 19 18 18 17 16 16 15 15 15 14 14 14 14 14 14 14 14 15 15 15 15 16 16 16 17 18 18 19 19 19 20 20 21 21 21 22 22 23 23
31 31 31 31 31 29 27 25 23 22 21 20 20 19 19 18 17 16 16 15 15 15 15 15 15 14 15 15 15 15 15 15 16 16 16 16 17 17 18 18 18 19 19 19 19 20 20 21 21 22 22 23
32 32 32 31 29 27 25 24 22 21 21 20 20 19 19 18 17 17 16 16 16 15 15 15 15 15 15 15 15 16 16 16 16 17 17 17 17 18 18 18 18 18 18 19 19 19 19 20 20 20 21 22
32 32 31 30 28 26 24 23 22 21 20 20 20 19 19 18 18 17 17 16 16 16 16 16 16 15 15 15 15 16 16 17 17 17 18 18 18 18 18 18 18 18 19 19 19 19 19 19 20 20 20 20
33 32 31 29 27 25 24 22 22 21 21 21 20 19 19 18 18 17 17 17 17 16 16 16 16 16 16 16 16 16 16 17 17 18 18 18 19 19 19 19 19 19 19 19 19 19 20 20 20 20 20 20
32 31 29 28 26 25 24 23 22 21 21 21 20 19 18 18 18 17 17 17 17 17 17 17 17 16 16 16 16 16 17 17 17 18 18 18 19 19 19 20 20 20 20 20 20 20 20 21 21 21 21 21
31 30 28 27 26 24 23 23 22 22 21 20 20 19 19 18 18 18 18 18 18 18 18 17 17 17 17 17 17 17 17 18 18 18 19 19 19 19 20 20 21 21 21 21 21 21 21 21 21 22 22 22
31 29 28 27 25 24 23 23 22 22 21 21 20 19 19 18 18 18 18 18 18 18 18 18 17 17 17 17 18 18 18 18 19 19 19 19 20 20 20 21 21 21 22 22 22 22 22 22 22 22 22 22
30 29 28 26 25 24 24 23 23 22 22 21 20 19 19 18 18 18 18 18 18 18 18 18 18 18 18 18 19 19 19 20 20 20 20 21 21 21 21 21 22 22 23 23 23 23 23 23 23 23 23 23
29 29 28 26 26 25 24 24 23 23 22 21 20 19 19 18 18 18 19 19 18 18 18 18 19 19 19 19 20 20 20 21 21 21 22 22 22 22 22 22 22 23 23 24 24 24 24 24 24 24 24 24
29 28 27 27 26 25 25 24 23 22 21 20 20 19 19 19 19 19 19 19 19 19 19 19 19 20 20 20 20 21 21 22 22 22 23 23 23 23 24 24 24 24 24 25 25 25 25 25 25 25 25 25
29 28 28 27 27 26 25 24 23 22 22 21 20 20 20 20 20 20 20 20 20 20 20 20 20 20 20 21 21 21 22 22 23 23 24 24 24 25 25 25 25 26 26 26 26 26 26 26 26 27 27 27
29 28 28 28 27 26 25 25 24 23 22 22 21 21 21 21 21 21 21 21 21 21 21 21 21 21 21 22 22 22 23 23 23 24 24 25 25 26 26 26 27 27 27 27 28 28 28 28 28 28 28 28
30 29 29 28 27 26 26 25 24 24 23 22 22 22 21 22 22 22 22 21 21 21 21 21 22 22 22 23 23 23 23 24 24 24 25 25 25 26 26 27 28 28 29 29 29 29 29 29 29 29 29 30
30 30 29 28 27 27 27 26 25 24 23 23 23 23 22 23 22 22 22 22 22 22 22 22 23 23 23 24 24 24 24 24 25 25 25 25 25 26 26 27 28 29 29 30 30 31 31 31 31 31 31 31
31 30 29 28 28 28 27 26 25 25 24 24 24 23 23 23 23 23 23 23 23 23 23 23 24 24 24 24 25 25 25 25 25 25 25 25 26 26 27 27 28 28 29 30 31 32 32 32 32 32 33 33
31 30 29 29 30 29 28 26 26 25 25 25 24 24 24 24 24 24 24 24 24 24 24 24 25 25 25 25 25 25 25 25 25 26 26 26 26 27 27 28 28 29 30 31 31 32 33 33 34 34 34 34
31 31 30 31 31 29 28 27 26 27 26 26 26 25 25 25 25 25 25 25 25 25 25 25 25 25 25 26 26 26 25 26 26 26 27 27 27 28 28 29 29 30 30 31 32 33 33 34 35 35 36 36
32 31 31 32 31 30 28 28 28 28 27 27 27 26 26 26 25 26 26 26 26 26 26 26 26 26 26 26 26 26 26 26 26 26 27 27 28 28 29 29 30 30 31 31 32 33 34 35 36 37 37 38
33 33 33 33 31 30 29 29 29 29 28 28 28 27 26 26 26 27 27 26 26 26 27 27 27 27 27 26 26 26 26 26 27 27 27 28 28 29 29 30 30 31 31 32 32 33 34 35 36 37 38 39
33 33 33 33 32 31 30 30 30 30 30 29 28 27 27 27 27 27 27 27 27 27 28 28 28 27 27 27 27 27 27 27 28 28 28 28 29 29 30 31 31 32 32 32 33 33 34 35 36 37 37 38
35 34 35 34 33 32 32 31 31 32 31 30 29 28 28 28 28 28 28 28 28 28 29 28 28 28 29 29 28 28 28 29 29 29 30 30 30 31 31 32 32 33 33 34 34 34 35 35 36 36 37 38
37 37 37 36 35 34 33 32 33 33 32 30 30 29 29 29 29 29 29 29 29 30 29 29 29 30 30 30 30 30 30 30 31 31 31 32 32 32 33 33 34 34 35 35 35 36 36 36 37 37 37 38
40 39 38 37 36 35 33 33 34 33 33 32 32 31 30 30 30 30 30 30 30 30 30 30 31 31 31 31 32 32 32 32 32 33 33 33 34 34 35 35 36 36 37 37 38 38 37 37 37 37 38 38
41 40 38 37 36 34 33 33 34 35 35 34 33 32 31 30 30 31 31 31 31 31 31 32 32 33 33 33 34 34 34 34 35 35 35 35 36 36 36 37 37 38 39 40 40 41 41 41 40 39 39 40
41 39 38 37 35 33 33 35 36 37 36 35 34 32 31 30 30 31 32 32 32 32 33 33 34 34 35 35 36 36 37 37 37 37 37 38 38 38 38 39 39 39 40 41 42 43 44 45 45 44 43 42
40 39 38 37 36 36 36 38 39 39 38 36 33 32 31 31 31 32 32 32 33 34 34 35 35 36 37 38 39 39 40 40 40 40 40 40 40 40 40 41 41 41 41 42 43 44 45 46 47 48 48 47
40 40 39 39 39 39 40 41 41 41 39 35 31 30 31 31 31 32 33 33 35 35 35 36 37 38 39 40 42 42 43 43 43 43 43 43 43 42 42 42 42 43 43 43 43 44 46 47 48 48 50 50
41 41 41 41 42 42 42 42 42 41 38 33 29 29 30 30 32 34 35 35 36 36 35 37 39 40 42 43 45 45 46 46 46 46 46 45 44 43 43 44 44 45 45 45 44 44 45 47 48 49 50 51
42 43 43 43 44 43 42 42 41 39 36 32 30 30 30 32 34 37 38 37 37 37 37 38 40 42 44 46 47 48 48 49 49 49 48 47 46 45 45 45 46 46 47 47 47 46 46 47 48 50 51 52
43 44 44 44 44 43 42 41 40 38 36 34 33 33 34 35 36 38 39 39 39 39 39 40 42 43 45 47 49 50 51 51 51 51 50 49 48 47 46 47 48 48 49 50 50 50 50 50 51 51 52 53
Wind_Direction
251 256 261 265 268 270 269 267 263 262 262 262 262 262 262 262 261 261 261 261 262 264 267 269 272 275 279 283 285 288 290 292 293 294 295 296 296 296 295 295 294 293 292 292 291 290 289 289 288 287 287 286
254 259 263 266 267 266 264 262 260 260 260 260 260 261 262 262 261 261 261 263 264 267 270 273 277 280 283 285 288 290 292 294 296 298 299 299 298 298 298 297 297 296 295 294 294 293 291 290 290 289 288 288
258 262 264 265 264 262 260 259 258 259 259 259 260 261 261 261 262 263 265 267 270 273 277 280 283 285 286 287 289 291 293 295 297 299 300 300 301 301 301 301 300 300 299 299 298 297 296 295 294 292 291 290
261 263 264 263 262 260 258 257 258 258 258 258 259 260 260 262 264 267 270 273 277 280 282 284 286 287 288 289 291 293 295 298 300 302 303 304 305 306 306 306 306 306 305 305 304 304 303 302 300 299 297 295
262 263 262 261 260 258 257 256 256 256 257 258 258 258 260 263 266 269 273 277 280 282 284 285 286 288 290 292 294 296 298 301 303 305 307 308 309 309 310 310 310 309 309 309 308 308 307 307 306 305 303 302
261 261 261 260 258 256 255 255 255 255 256 256 256 257 259 262 265 269 273 276 279 282 284 285 288 290 292 294 296 298 300 303 304 306 307 308 309 310 310 310 310 310 310 310 309 309 309 308 308 308 307 306
260 260 259 257 255 254 254 254 254 254 254 253 253 255 258 261 264 268 272 276 279 282 284 286 289 291 293 294 296 298 299 301 302 303 305 306 307 308 308 309 309 309 309 308 308 307 307 307 306 306 306 305
259 258 257 255 253 253 253 252 253 253 251 251 253 256 259 262 266 270 273 276 279 281 283 286 288 290 291 293 294 295 296 297 298 300 301 302 303 304 304 305 305 305 305 305 305 304 304 303 302 302 301 301
257 256 254 253 253 252 252 252 252 251 250 252 255 258 261 265 269 272 274 276 279 280 282 284 285 287 288 289 290 292 293 294 295 296 297 298 299 300 300 301 301 302 302 302 301 301 300 300 299 298 298 297
254 252 252 251 251 250 250 250 250 249 250 253 256 259 263 267 269 272 274 275 277 278 279 280 282 283 284 286 287 288 289 291 292 293 294 295 295 296 296 297 297 297 298 298 297 297 296 296 296 295 295 295
251 250 250 250 249 249 249 249 248 249 251 253 256 259 263 266 268 270 272 273 274 275 276 277 279 280 282 283 284 285 286 287 288 289 290 290 291 291 292 292 292 293 293 293 293 293 293 293 293 293 293 293
249 249 248 248 248 248 249 248 247 249 250 253 255 259 261 264 266 267 268 270 271 273 275 276 278 279 281 282 283 284 285 285 286 286 287 286 287 287 288 288 289 289 289 290 291 291 292 292 292 292 292 292
248 248 248 247 248 248 247 246 247 248 250 252 255 258 260 263 264 266 267 269 271 273 275 277 279 281 282 283 284 285 285 285 285 285 285 284 284 284 285 285 286 286 287 287 288 288 289 289 290 290 291 291
248 248 247 247 247 247 245 245 246 248 251 254 257 259 261 263 265 267 269 271 273 275 278 279 281 282 282 283 283 284 284 284 284 284 284 284 284 284 283 283 284 284 284 284 284 285 286 286 287 287 288 289
248 247 247 247 246 245 244 245 247 249 253 256 258 260 261 263 266 268 271 273 275 277 278 280 280 281 281 281 282 282 282 282 283 284 284 285 285 285 284 284 283 282 282 282 282 282 283 283 284 285 285 286
247 247 248 247 246 244 244 246 247 250 253 256 258 260 262 265 267 270 272 274 276 278 279 279 280 280 281 281 282 282 283 284 285 286 286 287 287 287 287 286 285 284 283 282 282 282 282 283 283 284 284 285
247 248 247 246 245 244 245 246 247 250 253 256 258 261 264 266 269 271 274 276 277 278 279 280 281 282 282 283 283 284 285 287 288 289 290 290 290 290 290 290 289 288 287 286 286 285 284 284 284 284 284 285
249 248 247 245 244 244 245 246 248 251 254 257 260 262 265 267 270 273 275 276 278 279 280 281 282 283 284 284 285 287 288 289 291 292 293 293 294 294 294 294 293 293 292 291 290 289 288 287 286 286 286 285
249 247 246 244 244 244 245 246 249 253 256 258 260 262 265 268 270 273 275 276 278 279 280 282 283 284 285 286 287 288 290 291 292 293 294 295 295 296 296 295 295 295 294 293 292 291 290 289 288 288 287 286
248 246 245 244 244 245 245 247 250 254 257 258 260 262 265 268 270 272 274 276 278 279 281 282 283 284 285 287 288 289 290 291 293 294 294 295 295 295 296 296 296 296 295 295 294 293 292 291 290 289 288 287
248 247 245 245 245 245 246 248 252 255 257 257 259 262 265 267 270 272 274 276 278 279 281 282 283 285 285 287 288 289 290 291 292 293 293 294 294 295 295 296 296 296 295 295 295 294 293 292 291 290 290 289
249 247 245 245 245 246 247 250 254 256 256 257 259 262 264 267 269 271 273 275 277 279 280 282 283 284 285 286 288 289 290 290 291 292 292 293 293 294 294 294 294 295 295 295 295 295 294 294 293 292 291 291
249 247 245 246 247 247 249 252 255 256 256 258 260 262 264 266 269 271 273 274 276 278 279 281 283 284 285 286 287 288 289 289 290 290 291 291 291 292 292 293 293 293 294 294 294 294 294 294 294 293 293 292
250 248 247 248 249 249 250 253 255 256 256 257 259 261 263 265 268 270 272 273 275 277 279 281 282 283 284 285 286 286 287 287 287 288 288 289 289 290 291 291 292 292 293 292 292 291 291 291 292 292 292 292
252 250 249 250 250 250 251 253 255 255 255 256 258 260 262 265 268 270 271 273 275 277 279 281 282 283 283 284 284 284 285 285 286 286 287 287 288 289 290 291 292 292 292 292 292 292 291 290 288 288 289 289
251 249 249 249 247 247 248 250 251 252 253 254 256 259 264 267 268 270 271 273 275 277 278 280 281 282 282 283 283 283 284 284 285 285 286 287 287 288 289 290 291 291 292 292 292 293 293 292 291 289 288 288
250 247 246 245 243 243 245 247 248 250 252 253 256 261 266 268 268 270 271 273 274 275 277 279 280 281 281 282 282 283 283 284 284 285 285 286 286 287 288 289 289 290 291 291 292 293 293 293 293 293 291 290
248 245 244 242 240 241 244 246 248 251 253 255 259 264 267 269 269 270 269 269 271 274 276 278 279 279 280 281 282 283 283 284 284 284 285 285 286 288 289 289 289 288 289 290 291 293 293 293 293 294 294 293
246 243 243 241 240 241 244 247 249 252 256 259 262 265 266 267 267 266 266 267 270 273 274 275 277 278 280 280 282 283 283 284 285 285 286 286 287 289 290 290 289 288 288 288 289 291 292 293 293 294 294 295
245 243 243 242 241 244 247 250 253 255 258 260 260 261 260 260 261 263 267 269 271 272 273 274 276 277 279 280 282 283 284 285 286 287 287 288 289 289 290 291 290 289 288 288 289 290 291 291 292 292 293 294
244 243 243 242 243 245 248 251 253 253 254 255 256 256 256 257 260 263 268 270 271 272 273 274 275 276 278 280 281 282 284 285 286 287 288 289 289 290 291 291 291 291 290 290 290 290 291 292 292 292 292 293
Height
3131 3131 3130 3130 3130 3130 3130 3130 3130 3130 3129 3129 3129 3129 3128 3128 3128 3128 3128 3128 3128 3127 3127 3127 3127 3127 3126 3126 3126 3126 3125 3125 3125 3124 3124 3124 3123 3123 3122 3122 3122 3122 3122 3122 3122 3122 3122 3122 3122 3122 3122 3122
3128 3128 3128 3128 3128 3127 3127 3127 3127 3127 3127 3127 3126 3126 3126 3126 3126 3126 3125 3125 3125 3125 3125 3125 3124 3124 3124 3124 3124 3123 3123 3123 3122 3122 3122 3122 3121 3121 3120 3120 3120 3120 3120 3120 3120 3120 3120 3120 3120 3120 3120 3120
3126 3126 3126 3125 3125 3125 3125 3125 3125 3125 3124 3124 3124 3124 3123 3123 3123 3123 3123 3123 3123 3122 3122 3122 3122 3122 3122 3121 3121 3121 3121 3121 3120 3120 3119 3119 3119 3118 3118 3118 3118 3117 3117 3117 3117 3117 3117 3117 3117 3117 3117 3117
3123 3123 3123 3123 3122 3122 3122 3122 3122 3122 3122 3122 3122 3121 3121 3121 3121 3120 3120 3120 3120 3120 3119 3119 3119 3119 3119 3119 3119 3119 3118 3118 3118 3117 3117 3116 3116 3116 3115 3115 3115 3115 3115 3115 3114 3114 3114 3114 3114 3114 3114 3114
3120 3120 3120 3120 3120 3119 3119 3120 3120 3120 3120 3120 3119 3119 3119 3118 3118 3118 3118 3117 3117 3117 3117 3117 3117 3117 3116 3116 3116 3116 3116 3115 3115 3114 3114 3114 3113 3113 3113 3113 3112 3112 3112 3112 3112 3112 3112 3112 3111 3112 3112 3112
3117 3117 3117 3117 3117 3117 3117 3117 3117 3118 3118 3117 3117 3117 3116 3116 3116 3116 3115 3115 3115 3115 3114 3114 3114 3114 3114 3113 3113 3113 3113 3113 3112 3112 3112 3111 3111 3110 3110 3110 3109 3109 3109 3109 3109 3109 3109 3109 3108 3108 3108 3108
3114 3114 3114 3114 3114 3114 3114 3115 3115 3115 3115 3115 3115 3114 3114 3114 3114 3113 3113 3113 3113 3112 3112 3111 3111 3111 3111 3110 3110 3110 3110 3110 3110 3109 3109 3109 3108 3108 3107 3107 3107 3106 3106 3106 3106 3106 3106 3106 3106 3105 3105 3105
3111 3111 3111 3111 3111 3111 3111 3112 3112 3112 3112 3112 3112 3112 3112 3111 3111 3111 3110 3110 3110 3109 3109 3109 3108 3108 3108 3108 3107 3107 3107 3107 3107 3107 3106 3106 3106 3105 3105 3104 3104 3104 3103 3103 3103 3103 3103 3103 3103 3103 3103 3103
3108 3108 3108 3108 3108 3108 3109 3109 3109 3110 3110 3109 3109 3109 3109 3108 3108 3108 3108 3107 3107 3107 3106 3106 3106 3105 3105 3105 3105 3104 3104 3104 3104 3104 3103 3103 3103 3102 3102 3102 3101 3101 3101 3101 3101 3100 3100 3100 3100 3100 3100 3100
3105 3105 3105 3105 3105 3106 3106 3106 3106 3106 3106 3106 3106 3106 3106 3106 3106 3105 3105 3105 3104 3104 3104 3104 3103 3103 3103 3102 3102 3102 3102 3101 3101 3101 3101 3100 3100 3100 3099 3099 3099 3098 3098 3098 3098 3098 3098 3098 3098 3097 3097 3097
3102 3102 3102 3102 3103 3103 3103 3103 3103 3103 3103 3103 3103 3103 3103 3103 3103 3103 3102 3102 3102 3102 3101 3101 3101 3100 3100 3100 3100 3099 3099 3099 3099 3098 3098 3097 3097 3097 3096 3096 3096 3096 3096 3096 3095 3096 3095 3095 3095 3095 3095 3094
3098 3099 3099 3099 3099 3100 3100 3100 3100 3100 3100 3100 3100 3100 3100 3100 3100 3100 3100 3100 3099 3099 3099 3098 3098 3098 3097 3097 3097 3097 3096 3096 3096 3096 3095 3095 3094 3094 3094 3093 3093 3093 3093 3093 3093 3093 3093 3092 3092 3092 3092 3091
3095 3095 3096 3096 3096 3096 3096 3097 3097 3097 3097 3097 3097 3098 3098 3098 3098 3097 3097 3097 3096 3096 3095 3095 3095 3094 3094 3094 3094 3094 3093 3093 3093 3093 3093 3092 3092 3091 3091 3090 3090 3090 3090 3090 3090 3090 3089 3089 3089 3089 3088 3088
3092 3092 3092 3092 3093 3093 3093 3093 3094 3094 3094 3094 3094 3094 3095 3094 3094 3094 3094 3093 3093 3093 3092 3092 3092 3091 3091 3091 3091 3091 3090 3090 3090 3090 3089 3089 3089 3088 3088 3087 3087 3087 3087 3086 3086 3086 3086 3086 3086 3085 3085 3085
3088 3089 3089 3089 3089 3090 3090 3090 3090 3090 3090 3091 3091 3091 3091 3091 3091 3091 3090 3090 3090 3089 3089 3089 3089 3089 3088 3088 3088 3088 3088 3087 3087 3087 3086 3086 3085 3085 3085 3084 3084 3083 3083 3083 3083 3083 3083 3082 3082 3082 3081 3081
3085 3085 3085 3086 3086 3086 3087 3087 3087 3087 3087 3087 3088 3088 3088 3087 3087 3087 3087 3087 3086 3086 3086 3086 3086 3086 3085 3085 3085 3085 3084 3084 3084 3083 3083 3082 3082 3082 3081 3081 3080 3080 3080 3079 3079 3078 3078 3078 3078 3077 3077 3077
3081 3082 3082 3082 3083 3083 3083 3083 3084 3084 3084 3084 3084 3084 3084 3084 3083 3083 3083 3083 3083 3082 3082 3082 3082 3082 3082 3082 3081 3081 3081 3080 3080 3079 3079 3079 3078 3078 3077 3077 3076 3076 3076 3075 3075 3074 3074 3074 3073 3073 3073 3072
3078 3078 3079 3079 3079 3080 3080 3080 3080 3080 3080 3080 3080 3080 3080 3080 3080 3080 3079 3079 3079 3079 3079 3078 3078 3078 3078 3078 3078 3077 3077 3076 3076 3075 3075 3074 3074 3073 3073 3072 3072 3072 3071 3071 3070 3070 3069 3069 3069 3068 3068 3068
3075 3075 3075 3075 3076 3076 3076 3076 3077 3077 3077 3077 3077 3077 3076 3076 3076 3076 3076 3076 3075 3075 3075 3075 3075 3075 3074 3074 3074 3073 3073 3072 3072 3071 3071 3070 3070 3069 3069 3069 3068 3068 3067 3067 3066 3066 3065 3065 3064 3064 3063 3063
3070 3071 3071 3071 3071 3072 3072 3073 3073 3073 3073 3073 3073 3073 3073 3073 3073 3073 3072 3072 3072 3071 3071 3071 3071 3071 3071 3070 3070 3069 3069 3068 3068 3067 3067 3067 3066 3066 3065 3065 3064 3064 3063 3063 3063 3062 3061 3061 3060 3060 3059 3058
3066 3066 3067 3067 3067 3068 3068 3069 3069 3069 3069 3069 3069 3070 3070 3069 3069 3069 3069 3069 3068 3068 3068 3067 3067 3067 3067 3066 3066 3065 3065 3064 3064 3064 3063 3063 3063 3062 3062 3061 3060 3060 3060 3059 3059 3058 3058 3057 3056 3055 3055 3054
3062 3062 3062 3062 3063 3064 3064 3065 3065 3065 3065 3065 3066 3066 3066 3066 3066 3065 3065 3065 3065 3064 3064 3064 3063 3063 3063 3062 3062 3061 3061 3061 3060 3060 3060 3059 3059 3058 3058 3057 3057 3056 3056 3055 3054 3054 3053 3052 3052 3051 3050 3050
3057 3057 3058 3059 3059 3060 3061 3061 3061 3061 3061 3062 3062 3062 3062 3062 3062 3062 3062 3061 3061 3060 3060 3060 3059 3059 3058 3058 3058 3057 3057 3057 3056 3056 3056 3055 3055 3055 3054 3053 3053 3052 3051 3051 3050 3049 3048 3048 3047 3046 3046 3045
3053 3053 3054 3055 3056 3057 3058 3058 3057 3057 3057 3058 3058 3058 3059 3059 3059 3058 3058 3057 3057 3056 3056 3056 3055 3055 3054 3054 3054 3053 3053 3053 3053 3052 3052 3051 3051 3050 3050 3049 3049 3048 3047 3046 3045 3045 3044 3044 3043 3042 3041 3041
3049 3050 3052 3053 3053 3054 3055 3054 3053 3053 3053 3054 3054 3055 3055 3055 3055 3054 3054 3053 3053 3052 3052 3052 3051 3051 3050 3050 3050 3049 3049 3049 3049 3048 3048 3047 3047 3046 3046 3045 3045 3044 3042 3041 3040 3039 3038 3038 3038 3038 3037 3036
3046 3047 3049 3049 3050 3050 3050 3049 3048 3048 3049 3049 3050 3050 3051 3051 3051 3050 3049 3049 3048 3048 3048 3047 3047 3046 3046 3045 3045 3045 3045 3044 3044 3044 3043 3043 3042 3042 3042 3041 3040 3039 3038 3036 3035 3034 3033 3031 3030 3031 3032 3032
3043 3044 3045 3045 3046 3046 3045 3044 3043 3043 3044 3045 3046 3047 3047 3047 3046 3046 3045 3044 3044 3043 3043 3043 3042 3041 3041 3040 3040 3040 3040 3039 3039 3039 3039 3038 3038 3038 3037 3037 3036 3035 3034 3032 3031 3029 3028 3027 3025 3024 3023 3024
3039 3040 3040 3040 3041 3040 3039 3038 3038 3038 3039 3041 3043 3043 3043 3042 3042 3041 3040 3040 3039 3039 3039 3038 3037 3036 3036 3035 3035 3034 3034 3034 3034 3034 3034 3034 3033 3033 3032 3031 3031 3030 3029 3028 3027 3025 3023 3022 3021 3019 3017 3016
3035 3035 3035 3035 3035 3034 3034 3034 3034 3034 3036 3039 3040 3039 3039 3038 3036 3035 3035 3035 3035 3034 3034 3033 3032 3031 3030 3030 3029 3029 3029 3029 3029 3029 3029 3028 3028 3028 3027 3026 3025 3024 3024 3023 3023 3022 3020 3018 3016 3014 3012 3011
3030 3030 3030 3030 3029 3029 3030 3030 3030 3032 3034 3035 3035 3035 3034 3032 3031 3030 3029 3029 3030 3029 3029 3028 3028 3027 3026 3025 3024 3024 3023 3023 3023 3023 3023 3023 3023 3023 3022 3020 3019 3018 3018 3017 3017 3016 3015 3014 3012 3010 3009 3006
3025 3025 3025 3025 3025 3026 3026 3026 3027 3029 3030 3030 3030 3029 3028 3027 3026 3025 3024 3024 3024 3024 3024 3024 3023 3022 3021 3020 3019 3018 3018 3017 3017 3017 3017 3017 3016 3016 3015 3014 3013 3012 3011 3010 3010 3009 3008 3008 3007 3005 3004 3002